Simultaneous Nadir Overpasses (SNOs) Predictions

Prediction of SNOs between METOP-A and TERRA Satellite Orbit:

Table of predicted SNOs for the next 14.0 days since TLE Epoch: 9/20/2014
Index Date (METOP-A) Time (METOP-A) Lat,Lon (METOP-A) SZA (METOP-A ) Date (TERRA) Time (TERRA) Lat,Lon (TERRA) SZA (TERRA ) Distance(km) Time Diff (sec)
1 09/22/2014 15:07:31 81.29, 0.02 84.05 09/22/2014 15:07:54 81.29, -0.03 84.06 0.85 23
2 09/22/2014 15:58:11 -81.29, 167.53 95.92 09/22/2014 15:57:21 -81.28, 167.52 95.95 0.65 50
3 09/25/2014 10:41:53 81.29, 66.58 85.19 09/25/2014 10:42:06 81.29, 66.43 85.17 2.47 13
4 09/25/2014 11:32:33 -81.29,-125.91 94.78 09/25/2014 11:31:33 -81.29,-125.99 94.82 1.48 60
5 09/28/2014 06:16:16 81.28, 132.69 86.27 09/28/2014 06:16:18 81.28, 132.71 86.27 0.65 2
6 09/28/2014 07:06:55 -81.29, -59.39 93.65 09/28/2014 07:05:44 -81.30, -59.29 93.67 1.77 71
7 10/01/2014 00:59:57 -81.28, 31.42 92.68 10/01/2014 01:01:02 -81.28, 31.58 92.63 2.75 65
8 10/01/2014 01:50:37 81.29,-160.85 87.39 10/01/2014 01:50:28 81.28,-160.80 87.38 0.94 9
9 10/03/2014 20:34:19 -81.28, 97.85 91.57 10/03/2014 20:35:13 -81.28, 97.93 91.54 1.39 54




NCC Satellite Simultaneous Nadir Overpasses (SNOs) Prediction Service
